User: anonymous   Login
Location: Platte
(43.3870°N, 98.8440°W)
Time: 10:07:34
(UTC-05:00)
Language:

Landsat 7 - Orbit

View from above orbital plane
View from above orbital plane
View from above satellite
View from above satellite

Ground track
Ground track

The orbit data is extracted from the following two-line orbital elements,

1 25682U 99020A   16151.22444737  .00000163  00000-0  46224-4 0  9992
2 25682  98.2124 221.8687 0001560  88.8503 271.2888 14.57106473910823
Epoch (UTC): 30 May 2016 05:23:12
Eccentricity: 0.0001560
inclination: 98.2124°
perigee height: 701 km
apogee height: 703 km
right ascension of ascending node: 221.8687°
argument of perigee: 88.8503°
revolutions per day: 14.57106473
mean anomaly at epoch: 271.2888°
orbit number at epoch: 91082

The dashed part of the orbit path shows where the satellite is in the earth's shadow,  

DLR